Regional Weather Roundup
Issued by NWS

Home | Current Version | Previous Version | Text Only | Print | Product List | Glossary Off
Versions: 1 2 3 4 5 6 7 8 9 10 11 12 13 14 15 16 17 18 19 20 21 22 23 24 25 26 27

000
ASUS45 KBOU 230307
RWRCO

WEATHER ROUNDUP FOR COLORADO
NATIONAL WEATHER SERVICE DENVER/BOULDER CO
800 PM MST SUN JAN 22 2017

NOTE: "FAIR" INDICATES FEW OR NO CLOUDS BELOW 12000 FEET WITH NO
SIGNIFICANT WEATHER AND/OR OBSTRUCTIONS TO VISIBILITY.

COZ001>005-013-030-031-230400-
...NORTHWEST COLORADO...

CITY           SKY/WX    TMP DP  RH WIND       PRES   REMARKS
CRAIG          FLURRIES  27  19  72 E9        29.91F WCI  18
HAYDEN         CLOUDY    25  19  80 NE6       29.91S WCI  18
MEEKER         LGT SNOW  26  25  96 CALM      29.91F FOG
MOUNT WERNER   NOT AVBL
STEAMBOAT SPGS CLOUDY    24  15  68 CALM      29.90F
WALDEN           N/A     23  10  58 SE12      29.88S WCI  12
$$

COZ006>008-011-230400-
...WEST CENTRAL VALLEYS...

CITY           SKY/WX    TMP DP  RH WIND       PRES   REMARKS
GRAND JUNCTION CLOUDY    34  27  75 SE14      29.95F HAZE    WCI  25
MONTROSE       LGT SNOW  30  27  88 S6        30.00F FOG     WCI  24
EAGLE          CLOUDY    28  19  69 CALM      29.97S
RIFLE          LGT SNOW  30  27  88 W7        29.96F FOG     WCI  23
DELTA          LGT SNOW  32  30  90 NE12      30.02F WCI  23
NUCLA          LGT SNOW  30  28  93 CALM      30.06F
$$

COZ017>023-064>068-230400-
...SOUTHWEST COLORADO...

CITY           SKY/WX    TMP DP  RH WIND       PRES   REMARKS
DURANGO        FLURRIES  24  21  88 NE6       30.09S WCI  17
CORTEZ         LGT SNOW  29  25  85 VRB3      30.07F FOG
PAGOSA SPRINGS LGT SNOW  24  24  98 CALM      30.08F
TELLURIDE      NOT AVBL
WOLF CREEK PAS CLOUDY     7   5  92 SW21G26   30.00F WCI -13
$$

COZ009-010-012-014-032>034-037-058>063-230400-
...CENTRAL COLORADO...

CITY           SKY/WX    TMP DP  RH WIND       PRES   REMARKS
ASPEN          CLOUDY    25  17  72 CALM      29.91F
BUENA VISTA    CLOUDY    27  13  56 SE3       29.94S
COPPER MTN     LGT SNOW  18  10  73 MISG      29.89S
BERTHOUD PASS  CLOUDY     7  -4  61 MISG      29.84S
COTTONWOOD PAS CLOUDY    27  16  63 W9G18     29.92F WCI  17
GUNNISON       LGT SNOW  19  16  88 NE6       30.02F FOG     WCI  11
KREMMLING      CLOUDY    28  16  59 E3        29.94R
LEADVILLE      LGT SNOW  17  12  80 SW3       29.90S
MONARCH PASS     N/A      9   5  85 SW28      30.01F WCI -13
SALIDA         CLOUDY    32  10  40 S21G30    30.01S WCI  20
SUNLIGHT       SNOW      14  12  92 SW14G24   29.91F VSB 1/4 WCI  -1
WILKERSON PASS CLOUDY    16   5  62 SW15      29.91S WCI   1
$$

COZ069>075-230400-
...SAN LUIS VALLEY/SANGRE DE CRISTO MOUNTAINS...

CITY           SKY/WX    TMP DP  RH WIND       PRES   REMARKS
ALAMOSA        MOCLDY    20  14  77 SE6       30.00F WCI  12
LA VETA PASS   FAIR      19   7  58 NE30G40   29.93F WCI   0
SAGUACHE       CLOUDY    23  16  74 CALM      30.02S
$$

COZ035-036-038>040-230400-
...NORTHERN COLORADO FRONT RANGE...

CITY           SKY/WX    TMP DP  RH WIND       PRES   REMARKS
DENVER INTL AP MOCLDY    33  15  47 SE13      29.83F WCI  24
DMNS CITY PARK   N/A     37  11  34 E9G16     29.84R
AURORA         MOCLDY    32  17  53 SE12      29.83F WCI  23
FRONT RANGE AP MOCLDY    32  18  55 SE10      29.86F WCI  24
ERIE MUNI ARPT FAIR      35  15  44 SE5       29.85F WCI  31
BOULDER MUN AP FAIR      34  18  51 NW3       29.86S
CENTENNIAL     CLOUDY    34  14  43 S12       29.83F WCI  25
BROOMFIELD     MOCLDY    36  12  38 CALM      29.85F
FORT COLLINS   FAIR      34  16  47 S5        29.86F WCI  30
LONGMONT       FAIR      33  22  64 CALM      29.88F
$$

COZ041-046-047-076>085-087-088-230400-
...PIKES PEAK/PALMER DIVIDE AND SOUTHERN FOOTHILLS...

CITY           SKY/WX    TMP DP  RH WIND       PRES   REMARKS
COLO. SPRINGS  MOCLDY    32  15  49 E6        29.88F WCI  26
A. F. ACADEMY  FAIR      31  13  46 SE3       29.86F
SCHRIEVER AFB  NOT AVBL
ELLICOTT       FAIR     N/A N/A N/A S12       29.87F
FALCON         MOCLDY    29  13  51 S3        29.89S
FORT CARSON    NOT AVBL
LIMON          FAIR      26  19  74 SE3       29.89F
MONUMENT HILL  FAIR      30  14  51 S9        29.87S WCI  22
TRINIDAD       FAIR      28  15  58 W9        29.92F WCI  19
$$

COZ042>045-048>051-090-091-230400-
...NORTHEAST COLORADO...

CITY           SKY/WX    TMP DP  RH WIND       PRES   REMARKS
GREELEY ARPT   FAIR      32  22  66 E8        29.87F WCI  25
AKRON          FAIR      30  15  53 S5        29.91S WCI  25
BURLINGTON     FAIR      29  23  78 N6        29.92F WCI  23
WRAY           NOT AVBL
STERLING       FAIR      28  19  69 NE3       29.90S
HOLYOKE        FAIR      32  25  74 W5        29.92S WCI  27
FORT MORGAN    FAIR      29  17  61 E7        29.90F WCI  22
$$

COZ086-089-092>099-230400-
...SOUTHEAST COLORADO...

CITY           SKY/WX    TMP DP  RH WIND       PRES   REMARKS
PUEBLO         FAIR      35  23  61 NE7       29.88F WCI  29
LA JUNTA       FAIR      36  21  54 S7        29.91F
LAMAR          FAIR      31  23  72 SW3       29.93S
SPRINGFIELD      N/A     22  17  81 W3        29.95F
$$




USA.gov is the U.S. government's official web portal to all federal, state and local government web resources and services.